CW8998 Weather Reports


Display with metric or nautical units.
time (UTC)temp
F
wind
direction
speed
MPH
gust
MPH
rain 1hr
in
rain 24hr
in
rain mn
in
humidity
%
barometer
mb
20260903003528 80 58 1.0 6.0 0.00 0.00 0.00 55 1011.4
20260903003047 80 38 2.0 6.0 0.00 0.00 0.00 55 1011.4
20260903002528 81 360 1.0 5.0 0.00 0.00 0.00 55 1011.3
20260903002029 81 76 1.0 5.0 0.00 0.00 0.00 55 1011.2
20260903001543 82 13 1.0 4.0 0.00 0.00 0.00 55 1011.3
20260903001028 82 0 1.0 4.0 0.00 0.00 0.00 54 1011.3
20260903000528 82 27 1.0 6.0 0.00 0.00 0.00 53 1011.4
20260903000044 82 13 1.0 6.0 0.00 0.00 0.00 53 1011.3
20260902235528 83 65 2.0 9.0 0.00 0.00 0.00 52 1011.1
20260902235027 83 70 3.0 9.0 0.00 0.00 0.00 52 1011.2
20260902234550 83 74 3.0 8.0 0.00 0.00 0.00 51 1011.2
20260902234026 84 30 3.0 7.0 0.00 0.00 0.00 51 1011.1
20260902233527 84 43 2.0 7.0 0.00 0.00 0.00 51 1011.2
20260902233046 84 26 3.0 7.0 0.00 0.00 0.00 50 1011.2
20260902232529 84 42 3.0 8.0 0.00 0.00 0.00 50 1011.1
20260902232026 84 11 3.0 8.0 0.00 0.00 0.00 49 1011.1
20260902231544 84 13 2.0 10.0 0.00 0.00 0.00 49 1011.1
20260902231028 84 311 4.0 10.0 0.00 0.00 0.00 49 1011.2
20260902230527 85 48 4.0 10.0 0.00 0.00 0.00 48 1011.3
20260902225528 85 28 4.0 11.0 0.00 0.00 0.00 47 1011.3
20260902225029 85 13 4.0 11.0 0.00 0.00 0.00 48 1011.2
20260902224550 85 31 3.0 9.0 0.00 0.00 0.00 48 1011.1
20260902224026 85 25 3.0 10.0 0.00 0.00 0.00 48 1011.2
20260902223526 86 81 4.0 10.0 0.00 0.00 0.00 47 1011.2
20260902223044 86 33 2.0 9.0 0.00 0.00 0.00 46 1011.2
20260902222526 86 37 5.0 9.0 0.00 0.00 0.00 46 1011.2
20260902222028 86 321 2.0 7.0 0.00 0.00 0.00 46 1011.2
20260902221545 85 72 3.0 7.0 0.00 0.00 0.00 47 1011.3
20260902221027 86 24 2.0 7.0 0.00 0.00 0.00 46 1011.4
20260902220530 86 35 3.0 9.0 0.00 0.00 0.00 45 1011.3
20260902220047 86 38 3.0 9.0 0.00 0.00 0.00 45 1011.4
20260902215531 87 23 3.0 9.0 0.00 0.00 0.00 45 1011.5
20260902215027 87 32 3.0 8.0 0.00 0.00 0.00 45 1011.5
20260902214555 86 40 3.0 8.0 0.00 0.00 0.00 46 1011.6
20260902214028 86 49 3.0 8.0 0.00 0.00 0.00 44 1011.6
20260902213527 87 53 2.0 5.0 0.00 0.00 0.00 44 1011.7
20260902213058 86 18 2.0 9.0 0.00 0.00 0.00 45 1011.7
20260902212532 87 36 4.0 9.0 0.00 0.00 0.00 43 1011.8
20260902212032 87 75 2.0 7.0 0.00 0.00 0.00 43 1011.7
20260902211546 87 342 2.0 8.0 0.00 0.00 0.00 43 1011.8
20260902211030 87 355 3.0 8.0 0.00 0.00 0.00 42 1011.7
20260902210529 87 298 3.0 9.0 0.00 0.00 0.00 43 1011.8
20260902210054 87 51 4.0 10.0 0.00 0.00 0.00 43 1011.8
20260902205525 87 59 3.0 10.0 0.00 0.00 0.00 44 1011.8
20260902205026 87 329 3.0 8.0 0.00 0.00 0.00 43 1011.8
20260902204550 87 12 2.0 10.0 0.00 0.00 0.00 42 1011.8
20260902204032 86 19 3.0 10.0 0.00 0.00 0.00 44 1011.9
20260902203528 86 42 2.0 10.0 0.00 0.00 0.00 42 1011.9
20260902203042 87 34 3.0 9.0 0.00 0.00 0.00 42 1011.9
20260902202528 87 291 2.0 7.0 0.00 0.00 0.00 42 1011.9
20260902202028 88 0 2.0 7.0 0.00 0.00 0.00 42 1011.9
20260902201553 87 348 2.0 7.0 0.00 0.00 0.00 43 1012.0
20260902201029 86 32 2.0 8.0 0.00 0.00 0.00 44 1012.0
20260902200527 87 59 3.0 8.0 0.00 0.00 0.00 43 1012.0
20260902200049 87 311 3.0 8.0 0.00 0.00 0.00 42 1012.0
20260902195529 86 38 2.0 8.0 0.00 0.00 0.00 44 1012.0
20260902195025 86 49 3.0 8.0 0.00 0.00 0.00 43 1012.2
20260902194547 86 46 1.0 9.0 0.00 0.00 0.00 43 1012.2
20260902194031 86 30 2.0 9.0 0.00 0.00 0.00 43 1012.3
20260902193530 86 32 4.0 9.0 0.00 0.00 0.00 42 1012.3
20260902193052 86 352 3.0 9.0 0.00 0.00 0.00 44 1012.2
20260902192529 85 310 2.0 9.0 0.00 0.00 0.00 43 1012.3
20260902192030 86 36 4.0 9.0 0.00 0.00 0.00 43 1012.4
20260902191555 85 30 1.0 6.0 0.00 0.00 0.00 44 1012.5
20260902191027 86 26 3.0 7.0 0.00 0.00 0.00 45 1012.5
20260902190528 86 17 1.0 7.0 0.00 0.00 0.00 44 1012.5
20260902190052 85 5 1.0 9.0 0.00 0.00 0.00 44 1012.5
20260902185526 85 360 2.0 9.0 0.00 0.00 0.00 45 1012.7
20260902185029 85 360 3.0 8.0 0.00 0.00 0.00 44 1012.8
20260902184552 84 61 1.0 8.0 0.00 0.00 0.00 45 1012.7
20260902184028 84 322 3.0 8.0 0.00 0.00 0.00 45 1013.0
20260902183529 84 163 2.0 6.0 0.00 0.00 0.00 45 1012.9
20260902183043 84 11 1.0 6.0 0.00 0.00 0.00 45 1013.0
20260902182529 84 47 2.0 8.0 0.00 0.00 0.00 45 1013.0
20260902182032 83 311 3.0 8.0 0.00 0.00 0.00 46 1013.0
20260902181553 84 78 2.0 8.0 0.00 0.00 0.00 45 1013.1
20260902181029 84 69 2.0 6.0 0.00 0.00 0.00 46 1013.1
20260902180528 85 9 1.0 7.0 0.00 0.00 0.00 45 1013.2
20260902180051 83 272 2.0 7.0 0.00 0.00 0.00 46 1013.2
20260902175532 83 105 3.0 7.0 0.00 0.00 0.00 47 1013.1
20260902175030 83 236 1.0 5.0 0.00 0.00 0.00 46 1013.1
20260902174550 83 45 1.0 8.0 0.00 0.00 0.00 47 1013.2
20260902174028 82 120 1.0 8.0 0.00 0.00 0.00 48 1013.3
20260902173526 82 244 2.0 8.0 0.00 0.00 0.00 48 1013.5
20260902173044 81 273 3.0 9.0 0.00 0.00 0.00 49 1013.5
20260902172528 81 33 3.0 9.0 0.00 0.00 0.00 50 1013.6
20260902172030 80 26 2.0 7.0 0.00 0.00 0.00 52 1013.6
20260902171547 80 26 4.0 7.0 0.00 0.00 0.00 51 1013.7
20260902171028 79 267 1.0 8.0 0.00 0.00 0.00 53 1013.6
20260902170525 79 53 3.0 8.0 0.00 0.00 0.00 53 1013.8
20260902170044 79 20 2.0 8.0 0.00 0.00 0.00 55 1013.6
20260902165529 79 47 1.0 4.0 0.00 0.00 0.00 57 1013.6
20260902165026 78 318 1.0 3.0 0.00 0.00 0.00 58 1013.5
20260902164545 78 40 0.0 6.0 0.00 0.00 0.00 58 1013.3
20260902164026 78 44 1.0 8.0 0.00 0.00 0.00 58 1013.2
20260902163526 79 332 3.0 8.0 0.00 0.00 0.00 56 1013.4
20260902163053 78 25 2.0 7.0 0.00 0.00 0.00 58 1013.4
20260902162528 78 59 3.0 7.0 0.00 0.00 0.00 58 1013.2
20260902162029 77 300 3.0 8.0 0.00 0.00 0.00 61 1013.4
20260902161544 77 178 2.0 8.0 0.00 0.00 0.00 61 1013.5
20260902161028 77 175 2.0 6.0 0.00 0.00 0.00 61 1013.6
20260902160529 77 5 1.0 6.0 0.00 0.00 0.00 62 1013.6
20260902160041 76 39 2.0 5.0 0.00 0.00 0.00 63 1013.6
20260902155528 76 237 0.0 4.0 0.00 0.00 0.00 64 1013.7
20260902155028 76 21 1.0 6.0 0.00 0.00 0.00 66 1013.7
20260902154549 75 33 1.0 6.0 0.00 0.00 0.00 66 1013.5
20260902154026 74 69 1.0 4.0 0.00 0.00 0.00 68 1013.5
20260902153529 74 0 1.0 4.0 0.00 0.00 0.00 68 1013.5
20260902153042 74 271 1.0 3.0 0.00 0.00 0.00 69 1013.5
20260902152529 73 13 0.0 3.0 0.00 0.00 0.00 70 1013.8
20260902152027 72 0 0.0 3.0 0.00 0.00 0.00 70 1013.9
20260902151553 73 355 0.0 4.0 0.00 0.00 0.00 71 1013.9
20260902151029 73 311 1.0 4.0 0.00 0.00 0.00 70 1013.8
20260902150529 73 0 0.0 3.0 0.00 0.00 0.00 70 1013.9
20260902150043 73 72 1.0 4.0 0.00 0.00 0.00 69 1013.9
20260902145530 72 352 1.0 4.0 0.00 0.00 0.00 71 1013.8
20260902145030 72 294 0.0 3.0 0.00 0.00 0.00 71 1013.7
20260902144541 72 34 0.0 3.0 0.00 0.00 0.00 71 1013.4
20260902144028 71 292 0.0 3.0 0.00 0.00 0.00 71 1013.6
20260902143528 71 198 1.0 3.0 0.00 0.00 0.00 72 1013.7
20260902143051 72 0 1.0 3.0 0.00 0.00 0.00 72 1013.2
20260902142528 72 0 0.0 2.0 0.00 0.00 0.00 71 1013.4
20260902142028 71 0 0.0 3.0 0.00 0.00 0.00 72 1013.4
20260902141545 71 0 0.0 3.0 0.00 0.00 0.00 72 1013.4
20260902141030 71 0 0.0 2.0 0.00 0.00 0.00 75 1013.5
20260902140528 71 16 0.0 2.0 0.00 0.00 0.00 73 1013.5
20260902140051 71 0 0.0 2.0 0.00 0.00 0.00 73 1013.5
20260902135531 70 355 0.0 2.0 0.00 0.00 0.00 74 1013.3
20260902135029 69 313 0.0 2.0 0.00 0.00 0.00 75 1013.4
20260902134557 69 0 0.0 2.0 0.00 0.00 0.00 77 1013.3
20260902134027 69 0 0.0 2.0 0.00 0.00 0.00 76 1013.5
20260902133529 69 303 0.0 2.0 0.00 0.00 0.00 76 1013.5
20260902133056 68 0 0.0 2.0 0.00 0.00 0.00 77 1013.4
20260902132527 67 0 0.0 2.0 0.00 0.00 0.00 79 1013.4
20260902132028 66 0 0.0 2.0 0.00 0.00 0.00 81 1013.6
20260902131548 65 0 0.0 3.0 0.00 0.00 0.00 82 1013.7
20260902131029 65 0 0.0 3.0 0.00 0.00 0.00 83 1013.8
20260902130529 64 0 1.0 3.0 0.00 0.00 0.00 84 1013.9
20260902130050 64 0 0.0 1.0 0.00 0.00 0.00 84 1013.9
20260902125529 64 0 0.0 1.0 0.00 0.00 0.00 84 1013.8
20260902125029 64 0 0.0 1.0 0.00 0.00 0.00 84 1013.8
20260902124553 63 0 0.0 2.0 0.00 0.00 0.00 84 1013.9
20260902124028 63 0 0.0 2.0 0.00 0.00 0.00 85 1013.8
20260902123528 63 11 0.0 2.0 0.00 0.00 0.00 86 1013.7
20260902123048 63 22 0.0 2.0 0.00 0.00 0.00 87 1013.6
20260902122528 63 0 0.0 2.0 0.00 0.00 0.00 87 1013.8
20260902122028 63 350 0.0 2.0 0.00 0.00 0.00 87 1013.8
20260902121548 63 0 0.0 2.0 0.00 0.00 0.00 87 1013.8
20260902121030 63 350 0.0 3.0 0.00 0.00 0.00 86 1013.6
20260902120529 63 305 1.0 3.0 0.00 0.00 0.00 86 1013.8
20260902120043 63 319 2.0 3.0 0.00 0.00 0.00 85 1013.6
20260902115528 63 317 0.0 3.0 0.00 0.00 0.00 85 1013.4
20260902115029 64 0 0.0 1.0 0.00 0.00 0.00 86 1013.5
20260902114556 64 0 0.0 1.0 0.00 0.00 0.00 86 1013.5
20260902114029 64 0 0.0 1.0 0.00 0.00 0.00 86 1013.5
20260902113529 64 0 0.0 1.0 0.00 0.00 0.00 86 1013.6
20260902113041 64 0 0.0 1.0 0.00 0.00 0.00 86 1013.5
20260902112529 64 0 0.0 0.0 0.00 0.00 0.00 86 1013.7
20260902112029 64 0 0.0 0.0 0.00 0.00 0.00 85 1013.6
20260902111548 64 0 0.0 0.0 0.00 0.00 0.00 85 1013.6
20260902111029 64 0 0.0 1.0 0.00 0.00 0.00 85 1013.6
20260902110529 64 0 0.0 1.0 0.00 0.00 0.00 85 1013.6
20260902110042 64 0 0.0 1.0 0.00 0.00 0.00 85 1013.6
20260902105528 63 0 0.0 1.0 0.00 0.00 0.00 85 1013.8
20260902105029 63 0 0.0 1.0 0.00 0.00 0.00 85 1013.6
20260902104543 63 0 0.0 0.0 0.00 0.00 0.00 85 1013.7
20260902104028 63 0 0.0 0.0 0.00 0.00 0.00 85 1013.6
20260902103528 63 0 0.0 0.0 0.00 0.00 0.00 85 1013.6
20260902103053 63 0 0.0 1.0 0.00 0.00 0.00 85 1013.6
20260902102531 63 0 0.0 1.0 0.00 0.00 0.00 84 1013.5
20260902102029 63 38 0.0 0.0 0.00 0.00 0.00 84 1013.5
20260902101545 64 0 0.0 1.0 0.00 0.00 0.00 84 1013.5
20260902101028 64 0 0.0 1.0 0.00 0.00 0.00 83 1013.4
20260902100528 64 0 0.0 0.0 0.00 0.00 0.00 83 1013.4
20260902100100 64 0 0.0 1.0 0.00 0.00 0.00 83 1013.3
20260902095533 64 0 0.0 2.0 0.00 0.00 0.00 82 1013.3
20260902095030 64 0 0.0 2.0 0.00 0.00 0.00 82 1013.2
20260902094553 64 0 0.0 2.0 0.00 0.00 0.00 82 1013.2
20260902094027 64 0 0.0 2.0 0.00 0.00 0.00 81 1013.3
20260902093529 64 0 0.0 2.0 0.00 0.00 0.00 80 1013.5
20260902093053 64 57 0.0 2.0 0.00 0.00 0.00 80 1013.5
20260902092528 65 0 0.0 1.0 0.00 0.00 0.00 79 1013.5
20260902092029 65 0 0.0 0.0 0.00 0.00 0.00 79 1013.4
20260902091603 65 0 0.0 0.0 0.00 0.00 0.00 78 1013.3
20260902091032 65 0 0.0 0.0 0.00 0.00 0.00 78 1013.5
20260902090531 65 0 0.0 1.0 0.00 0.00 0.00 78 1013.5
20260902090049 66 0 0.0 2.0 0.00 0.00 0.00 77 1013.4
20260902085530 66 0 0.0 2.0 0.00 0.00 0.00 76 1013.6
20260902085029 66 0 1.0 2.0 0.00 0.00 0.00 76 1013.5
20260902084546 67 0 0.0 1.0 0.00 0.00 0.00 75 1013.6
20260902084027 67 0 0.0 1.0 0.00 0.00 0.00 74 1013.6
20260902083530 67 0 0.0 4.0 0.00 0.00 0.00 75 1013.5
20260902083046 67 0 1.0 4.0 0.00 0.00 0.00 75 1013.5
20260902082527 67 333 0.0 1.0 0.00 0.00 0.00 75 1013.8
20260902082029 67 0 0.0 2.0 0.00 0.00 0.00 75 1013.7
20260902081543 67 0 0.0 2.0 0.00 0.00 0.00 75 1013.6
20260902081030 67 128 0.0 2.0 0.00 0.00 0.00 75 1013.5
20260902080530 67 0 0.0 2.0 0.00 0.00 0.00 76 1013.4
20260902080108 67 0 0.0 3.0 0.00 0.00 0.00 76 1013.2
20260902075529 67 182 0.0 3.0 0.00 0.00 0.00 75 1013.2
20260902075029 67 175 0.0 2.0 0.00 0.00 0.00 76 1013.2
20260902074550 67 0 0.0 2.0 0.00 0.00 0.00 76 1013.1
20260902074030 67 0 0.0 4.0 0.00 0.00 0.00 76 1013.0
20260902073528 67 0 1.0 5.0 0.00 0.00 0.00 78 1013.0
20260902073044 67 0 1.0 5.0 0.00 0.00 0.00 79 1012.8
20260902072528 67 0 0.0 1.0 0.00 0.00 0.00 78 1012.7
20260902072028 68 0 0.0 1.0 0.00 0.00 0.00 78 1012.6
20260902071603 68 0 0.0 1.0 0.00 0.00 0.00 76 1012.9
20260902071029 68 0 0.0 2.0 0.00 0.00 0.00 76 1012.8
20260902070529 68 0 0.0 2.0 0.00 0.00 0.00 77 1013.0
20260902070057 68 0 0.0 2.0 0.00 0.00 0.00 78 1013.1
20260902065529 68 0 0.0 4.0 0.00 0.00 0.00 79 1013.1
20260902065028 68 0 0.0 4.0 0.00 0.00 0.00 78 1013.1
20260902064542 68 173 0.0 4.0 0.00 0.00 0.00 78 1013.1
20260902064030 68 0 0.0 2.0 0.00 0.00 0.00 78 1013.0
20260902063527 68 0 0.0 2.0 0.00 0.00 0.00 78 1013.2
20260902063048 68 0 0.0 3.0 0.00 0.00 0.00 77 1013.3
20260902062527 68 0 0.0 4.0 0.00 0.00 0.00 77 1013.4
20260902062026 68 195 2.0 5.0 0.00 0.00 0.00 77 1013.3
20260902061028 68 160 0.0 4.0 0.00 0.00 0.00 76 1013.3
20260902060525 68 0 1.0 4.0 0.00 0.00 0.00 76 1013.3
20260902060044 68 173 1.0 4.0 0.00 0.00 0.00 77 1013.2
20260902055529 68 130 1.0 4.0 0.00 0.00 0.00 75 1013.2
20260902055026 67 0 1.0 4.0 0.00 0.00 0.00 78 1013.2
20260902054546 67 0 0.0 4.0 0.00 0.00 0.00 78 1013.3
20260902054028 67 11 1.0 3.0 0.00 0.00 0.00 78 1013.3
20260902053528 68 0 1.0 3.0 0.00 0.00 0.00 80 1013.5
20260902053054 67 340 0.0 1.0 0.00 0.00 0.00 79 1013.5
20260902052529 68 0 0.0 1.0 0.00 0.00 0.00 80 1013.7
20260902052026 68 0 0.0 2.0 0.00 0.00 0.00 80 1013.9
20260902051548 68 0 0.0 3.0 0.00 0.00 0.00 80 1013.9
20260902051029 68 0 0.0 3.0 0.00 0.00 0.00 80 1013.9
20260902050529 68 315 1.0 3.0 0.00 0.00 0.00 79 1014.1
20260902050047 68 21 1.0 2.0 0.00 0.00 0.00 79 1013.9
20260902045529 69 0 0.0 1.0 0.00 0.00 0.00 79 1014.1
20260902045029 69 0 0.0 3.0 0.00 0.00 0.00 78 1014.1
20260902044544 69 0 0.0 3.0 0.00 0.00 0.00 77 1014.3
20260902044030 70 5 2.0 3.0 0.00 0.00 0.00 76 1014.2
20260902043528 70 5 0.0 2.0 0.00 0.00 0.00 75 1014.3
20260902043042 70 0 0.0 1.0 0.00 0.00 0.00 74 1014.5
20260902042528 70 0 0.0 1.0 0.00 0.00 0.00 73 1014.3
20260902042030 71 0 0.0 1.0 0.00 0.00 0.00 73 1014.3
20260902041551 71 5 0.0 1.0 0.00 0.00 0.00 71 1014.4
20260902041026 71 0 0.0 2.0 0.00 0.00 0.00 69 1014.1
20260902040529 71 0 0.0 2.0 0.00 0.00 0.00 69 1014.0
20260902040044 71 0 0.0 2.0 0.00 0.00 0.00 69 1013.9
20260902035525 71 5 0.0 2.0 0.00 0.00 0.00 70 1014.1
20260902035026 71 0 0.0 2.0 0.00 0.00 0.00 70 1014.1
20260902034545 71 0 0.0 2.0 0.00 0.00 0.00 71 1014.3
20260902034028 71 0 0.0 2.0 0.00 0.00 0.00 69 1014.4
20260902033529 71 5 0.0 2.0 0.00 0.00 0.00 68 1014.3
20260902033044 71 306 0.0 1.0 0.00 0.00 0.00 69 1014.2
20260902032529 71 0 0.0 1.0 0.00 0.00 0.00 69 1014.2
20260902032032 71 0 0.0 0.0 0.00 0.00 0.00 69 1014.4
20260902031550 71 0 0.0 0.0 0.00 0.00 0.00 69 1014.4
20260902031028 71 0 0.0 0.0 0.00 0.00 0.00 69 1014.4
20260902030529 72 0 0.0 0.0 0.00 0.00 0.00 69 1014.3
20260902030045 72 0 0.0 0.0 0.00 0.00 0.00 69 1014.4
20260902025530 72 0 0.0 0.0 0.00 0.00 0.00 69 1014.3
20260902025029 72 0 0.0 0.0 0.00 0.00 0.00 68 1014.3
20260902024547 72 0 0.0 1.0 0.00 0.00 0.00 68 1014.3
20260902024028 72 0 0.0 1.0 0.00 0.00 0.00 68 1014.3
20260902023529 72 0 0.0 1.0 0.00 0.00 0.00 68 1014.3
20260902023043 72 0 0.0 2.0 0.00 0.00 0.00 68 1014.3
20260902022529 73 0 0.0 2.0 0.00 0.00 0.00 66 1014.2
20260902022028 73 0 0.0 2.0 0.00 0.00 0.00 65 1014.2
20260902021549 73 290 0.0 2.0 0.00 0.00 0.00 62 1014.0
20260902021028 73 0 0.0 2.0 0.00 0.00 0.00 62 1013.8
20260902020526 74 0 0.0 2.0 0.00 0.00 0.00 62 1013.6
20260902020046 74 0 0.0 2.0 0.00 0.00 0.00 62 1013.5
20260902015530 74 0 0.0 1.0 0.00 0.00 0.00 61 1013.6
20260902015028 74 0 0.0 1.0 0.00 0.00 0.00 61 1013.8
20260902014548 74 0 0.0 2.0 0.00 0.00 0.00 61 1013.6
20260902014028 74 0 0.0 2.0 0.00 0.00 0.00 61 1013.6
20260902013529 75 0 0.0 2.0 0.00 0.00 0.00 62 1013.6
20260902013043 75 0 0.0 2.0 0.00 0.00 0.00 62 1013.7
20260902012529 75 0 0.0 2.0 0.00 0.00 0.00 62 1013.6
20260902012032 75 0 0.0 2.0 0.00 0.00 0.00 61 1013.7
20260902011549 75 0 0.0 1.0 0.00 0.00 0.00 62 1013.6
20260902011028 75 0 0.0 1.0 0.00 0.00 0.00 61 1013.5
20260902010529 75 0 0.0 1.0 0.00 0.00 0.00 61 1013.4
20260902010112 75 0 0.0 1.0 0.00 0.00 0.00 62 1013.4
20260902005526 75 0 0.0 2.0 0.00 0.00 0.00 62 1013.5
20260902005026 76 0 0.0 2.0 0.00 0.00 0.00 63 1013.5
20260902004546 76 207 0.0 1.0 0.00 0.00 0.00 61 1013.5
20260902004028 76 0 0.0 1.0 0.00 0.00 0.00 62 1013.5